Time,TemperatureF,DewpointF,PressureIn,WindDirection,WindDirectionDegrees,WindSpeedMPH,WindSpeedGustMPH,Humidity,HourlyPrecipIn,Conditions,Clouds,dailyrainin,SoftwareType,DateUTC
2013-07-30 00:02:00,87.7,48.2,30.09,WNW,293,7.8,10.5,26,0.00,,,0.00,WUHU216HW,2013-07-30 07:02:00,
2013-07-30 00:07:00,87.5,49.1,30.09,NW,315,6.5,9.4,27,0.00,,,0.00,WUHU216HW,2013-07-30 07:07:00,
2013-07-30 00:12:00,87.1,48.8,30.09,WNW,293,4.0,9.6,27,0.00,,,0.00,WUHU216HW,2013-07-30 07:12:00,
2013-07-30 00:17:00,86.8,49.6,30.09,WNW,293,4.7,9.6,28,0.00,,,0.00,WUHU216HW,2013-07-30 07:17:00,
2013-07-30 00:22:00,86.6,49.4,30.10,NNW,338,4.9,6.3,28,0.00,,,0.00,WUHU216HW,2013-07-30 07:22:00,
2013-07-30 00:27:00,86.2,49.2,30.09,NW,315,5.6,6.3,28,0.00,,,0.00,WUHU216HW,2013-07-30 07:27:00,
2013-07-30 00:33:00,86.0,49.0,30.09,NNW,338,4.0,6.3,28,0.00,,,0.00,WUHU216HW,2013-07-30 07:33:00,
2013-07-30 00:38:00,86.2,49.2,30.09,NW,315,6.9,9.2,28,0.00,,,0.00,WUHU216HW,2013-07-30 07:38:00,
2013-07-30 00:43:00,86.4,49.2,30.08,NW,315,6.0,9.2,28,0.00,,,0.00,WUHU216HW,2013-07-30 07:43:00,
2013-07-30 00:47:00,86.2,49.2,30.08,NW,315,4.0,7.6,28,0.00,,,0.00,WUHU216HW,2013-07-30 07:47:00,
2013-07-30 00:52:00,86.0,49.0,30.09,WNW,293,6.3,7.6,28,0.00,,,0.00,WUHU216HW,2013-07-30 07:52:00,
2013-07-30 00:58:00,85.9,48.8,30.09,NNW,338,5.1,7.6,28,0.00,,,0.00,WUHU216HW,2013-07-30 07:58:00,
2013-07-30 01:03:00,85.7,49.7,30.09,West,270,3.6,6.3,29,0.00,,,0.00,WUHU216HW,2013-07-30 08:03:00,
2013-07-30 01:08:00,85.5,49.6,30.09,West,270,4.9,6.7,29,0.00,,,0.00,WUHU216HW,2013-07-30 08:08:00,
2013-07-30 01:13:00,85.3,49.4,30.10,NW,315,3.6,7.2,29,0.00,,,0.00,WUHU216HW,2013-07-30 08:13:00,
2013-07-30 01:18:00,85.3,49.4,30.09,NW,315,5.4,7.6,29,0.00,,,0.00,WUHU216HW,2013-07-30 08:18:00,
2013-07-30 01:23:00,85.1,49.2,30.10,NW,315,5.1,7.6,29,0.00,,,0.00,WUHU216HW,2013-07-30 08:23:00,
2013-07-30 01:28:00,85.1,50.3,30.10,NW,315,5.1,7.4,30,0.00,,,0.00,WUHU216HW,2013-07-30 08:28:00,
2013-07-30 01:33:00,85.1,49.2,30.10,NW,315,3.4,7.4,29,0.00,,,0.00,WUHU216HW,2013-07-30 08:33:00,
2013-07-30 01:38:00,85.0,50.1,30.10,WNW,293,2.7,7.2,30,0.00,,,0.00,WUHU216HW,2013-07-30 08:38:00,
2013-07-30 01:43:00,84.8,50.0,30.10,NW,315,3.4,7.2,30,0.00,,,0.00,WUHU216HW,2013-07-30 08:43:00,
2013-07-30 01:48:00,84.6,49.9,30.10,WNW,293,4.0,6.7,30,0.00,,,0.00,WUHU216HW,2013-07-30 08:48:00,
2013-07-30 01:53:00,84.6,49.9,30.10,West,270,4.0,5.6,30,0.00,,,0.00,WUHU216HW,2013-07-30 08:53:00,
2013-07-30 01:58:00,84.8,49.0,30.10,WNW,293,3.6,6.5,29,0.00,,,0.00,WUHU216HW,2013-07-30 08:58:00,
2013-07-30 02:03:00,84.8,49.0,30.10,West,270,2.5,6.5,29,0.00,,,0.00,WUHU216HW,2013-07-30 09:03:00,
2013-07-30 02:08:00,84.8,49.0,30.10,NNW,338,3.4,6.7,29,0.00,,,0.00,WUHU216HW,2013-07-30 09:08:00,
2013-07-30 02:13:00,85.0,49.1,30.10,NW,315,8.5,8.5,29,0.00,,,0.00,WUHU216HW,2013-07-30 09:13:00,
2013-07-30 02:18:00,85.5,49.6,30.10,NW,315,3.1,8.5,29,0.00,,,0.00,WUHU216HW,2013-07-30 09:18:00,
2013-07-30 02:23:00,85.5,49.6,30.10,NNW,338,3.4,8.5,29,0.00,,,0.00,WUHU216HW,2013-07-30 09:23:00,
2013-07-30 02:28:00,85.7,49.7,30.10,NW,315,4.9,6.9,29,0.00,,,0.00,WUHU216HW,2013-07-30 09:28:00,
2013-07-30 02:33:00,85.7,49.7,30.11,NNW,338,4.7,6.3,29,0.00,,,0.00,WUHU216HW,2013-07-30 09:33:00,
2013-07-30 02:38:00,85.7,49.7,30.11,NW,315,8.1,9.4,29,0.00,,,0.00,WUHU216HW,2013-07-30 09:38:00,
2013-07-30 02:43:00,85.7,49.7,30.11,WNW,293,2.9,9.4,29,0.00,,,0.00,WUHU216HW,2013-07-30 09:43:00,
2013-07-30 02:48:00,85.5,49.6,30.11,NW,315,4.0,8.1,29,0.00,,,0.00,WUHU216HW,2013-07-30 09:48:00,
2013-07-30 02:53:00,85.3,49.4,30.11,NNW,338,2.2,6.0,29,0.00,,,0.00,WUHU216HW,2013-07-30 09:53:00,
2013-07-30 02:58:00,85.0,50.1,30.11,NNW,338,2.5,4.0,30,0.00,,,0.00,WUHU216HW,2013-07-30 09:58:00,
2013-07-30 03:03:00,84.6,49.9,30.10,NW,315,2.5,3.8,30,0.00,,,0.00,WUHU216HW,2013-07-30 10:03:00,
2013-07-30 03:08:00,84.4,49.7,30.10,NNW,338,1.8,3.8,30,0.00,,,0.00,WUHU216HW,2013-07-30 10:08:00,
2013-07-30 03:13:00,84.1,49.3,30.10,NW,315,4.0,4.0,30,0.00,,,0.00,WUHU216HW,2013-07-30 10:13:00,
2013-07-30 03:18:00,83.9,50.0,30.09,WNW,293,5.1,5.1,31,0.00,,,0.00,WUHU216HW,2013-07-30 10:18:00,
2013-07-30 03:23:00,83.9,50.0,30.10,WNW,293,4.0,5.6,31,0.00,,,0.00,WUHU216HW,2013-07-30 10:23:00,
2013-07-30 03:28:00,83.9,50.0,30.10,West,270,4.5,8.1,31,0.00,,,0.00,WUHU216HW,2013-07-30 10:28:00,
2013-07-30 03:33:00,84.1,50.1,30.10,NNW,338,6.3,8.5,31,0.00,,,0.00,WUHU216HW,2013-07-30 10:33:00,
2013-07-30 03:38:00,84.2,51.1,30.10,NW,315,4.5,8.5,32,0.00,,,0.00,WUHU216HW,2013-07-30 10:38:00,
2013-07-30 03:43:00,84.2,50.3,30.11,WNW,293,5.1,8.5,31,0.00,,,0.00,WUHU216HW,2013-07-30 10:43:00,
2013-07-30 03:48:00,84.1,50.1,30.11,NW,315,3.6,7.6,31,0.00,,,0.00,WUHU216HW,2013-07-30 10:48:00,
2013-07-30 03:53:00,83.9,50.0,30.11,NW,315,3.6,6.5,31,0.00,,,0.00,WUHU216HW,2013-07-30 10:53:00,
2013-07-30 03:58:00,83.5,50.4,30.11,NW,315,1.8,4.3,32,0.00,,,0.00,WUHU216HW,2013-07-30 10:58:00,
2013-07-30 04:03:00,83.2,50.1,30.11,West,270,2.9,3.6,32,0.00,,,0.00,WUHU216HW,2013-07-30 11:03:00,
2013-07-30 04:08:00,83.0,50.0,30.11,WNW,293,1.6,3.1,32,0.00,,,0.00,WUHU216HW,2013-07-30 11:08:00,
2013-07-30 04:13:00,82.8,49.8,30.11,NNW,338,2.7,4.0,32,0.00,,,0.00,WUHU216HW,2013-07-30 11:13:00,
2013-07-30 04:18:00,82.6,49.6,30.12,WNW,293,2.0,4.0,32,0.00,,,0.00,WUHU216HW,2013-07-30 11:18:00,
2013-07-30 04:23:00,82.4,49.5,30.12,NNW,338,1.8,4.3,32,0.00,,,0.00,WUHU216HW,2013-07-30 11:23:00,
2013-07-30 04:28:00,82.4,49.5,30.12,NNW,338,2.5,4.3,32,0.00,,,0.00,WUHU216HW,2013-07-30 11:28:00,
2013-07-30 04:33:00,82.3,49.3,30.12,NNW,338,2.9,3.8,32,0.00,,,0.00,WUHU216HW,2013-07-30 11:33:00,
2013-07-30 04:38:00,82.4,49.5,30.12,NNW,338,1.6,3.8,32,0.00,,,0.00,WUHU216HW,2013-07-30 11:38:00,
2013-07-30 04:43:00,82.4,49.5,30.12,NW,315,2.0,3.6,32,0.00,,,0.00,WUHU216HW,2013-07-30 11:43:00,
2013-07-30 04:48:00,82.4,49.5,30.12,WNW,293,1.8,3.4,32,0.00,,,0.00,WUHU216HW,2013-07-30 11:48:00,
2013-07-30 04:53:00,82.3,49.3,30.13,West,270,1.8,3.6,32,0.00,,,0.00,WUHU216HW,2013-07-30 11:53:00,
2013-07-30 04:58:00,82.1,50.0,30.13,NW,315,1.8,3.6,33,0.00,,,0.00,WUHU216HW,2013-07-30 11:58:00,
2013-07-30 05:03:00,82.1,50.0,30.13,WNW,293,0.9,2.5,33,0.00,,,0.00,WUHU216HW,2013-07-30 12:03:00,
2013-07-30 05:08:00,81.9,49.8,30.13,West,270,1.3,2.5,33,0.00,,,0.00,WUHU216HW,2013-07-30 12:08:00,
2013-07-30 05:13:00,81.7,49.7,30.13,WSW,248,0.4,1.8,33,0.00,,,0.00,WUHU216HW,2013-07-30 12:13:00,
2013-07-30 05:17:00,81.4,49.3,30.13,SE,135,1.3,1.8,33,0.00,,,0.00,WUHU216HW,2013-07-30 12:17:00,
2013-07-30 05:22:00,81.0,49.1,30.13,ESE,113,2.0,2.9,33,0.00,,,0.00,WUHU216HW,2013-07-30 12:22:00,
2013-07-30 05:27:00,80.5,49.4,30.14,ENE,68,2.0,2.9,34,0.00,,,0.00,WUHU216HW,2013-07-30 12:27:00,
2013-07-30 05:33:00,79.9,48.9,30.14,East,90,2.7,3.8,34,0.00,,,0.00,WUHU216HW,2013-07-30 12:33:00,
2013-07-30 05:38:00,79.7,49.5,30.14,ENE,68,1.8,4.3,35,0.00,,,0.00,WUHU216HW,2013-07-30 12:38:00,
2013-07-30 05:42:00,79.6,49.3,30.14,East,90,0.9,4.3,35,0.00,,,0.00,WUHU216HW,2013-07-30 12:42:00,
2013-07-30 05:48:00,79.4,49.1,30.14,East,90,0.9,3.4,35,0.00,,,0.00,WUHU216HW,2013-07-30 12:48:00,
2013-07-30 05:53:00,79.2,49.1,30.14,East,90,0.7,1.6,35,0.00,,,0.00,WUHU216HW,2013-07-30 12:53:00,
2013-07-30 05:58:00,79.2,49.8,30.14,ESE,113,1.6,2.0,36,0.00,,,0.00,WUHU216HW,2013-07-30 12:58:00,
2013-07-30 06:03:00,79.2,49.8,30.14,ESE,113,0.0,2.0,36,0.00,,,0.00,WUHU216HW,2013-07-30 13:03:00,
2013-07-30 06:07:00,79.2,50.6,30.15,ESE,113,1.8,2.5,37,0.00,,,0.00,WUHU216HW,2013-07-30 13:07:00,
2013-07-30 06:12:00,79.2,50.6,30.14,SW,225,1.1,2.5,37,0.00,,,0.00,WUHU216HW,2013-07-30 13:12:00,
2013-07-30 06:17:00,79.2,50.6,30.14,SE,135,1.1,2.5,37,0.00,,,0.00,WUHU216HW,2013-07-30 13:17:00,
2013-07-30 06:22:00,79.0,50.4,30.14,East,90,4.5,4.5,37,0.00,,,0.00,WUHU216HW,2013-07-30 13:22:00,
2013-07-30 06:27:00,79.0,50.4,30.14,ESE,113,4.7,4.9,37,0.00,,,0.00,WUHU216HW,2013-07-30 13:27:00,
2013-07-30 06:32:00,79.2,51.3,30.14,SE,135,4.3,4.9,38,0.00,,,0.00,WUHU216HW,2013-07-30 13:32:00,
2013-07-30 06:37:00,79.2,51.3,30.15,ESE,113,4.5,6.9,38,0.00,,,0.00,WUHU216HW,2013-07-30 13:37:00,
2013-07-30 06:42:00,79.4,51.5,30.15,ESE,113,3.1,7.8,38,0.00,,,0.00,WUHU216HW,2013-07-30 13:42:00,
2013-07-30 06:47:00,79.6,51.7,30.16,ESE,113,6.0,7.8,38,0.00,,,0.00,WUHU216HW,2013-07-30 13:47:00,
2013-07-30 06:52:00,79.7,51.9,30.15,SE,135,5.4,7.6,38,0.00,,,0.00,WUHU216HW,2013-07-30 13:52:00,
2013-07-30 06:57:00,79.9,52.0,30.16,SE,135,2.7,7.6,38,0.00,,,0.00,WUHU216HW,2013-07-30 13:57:00,
2013-07-30 07:02:00,80.1,52.1,30.16,ESE,113,3.4,5.4,38,0.00,,,0.00,WUHU216HW,2013-07-30 14:02:00,
2013-07-30 07:07:00,80.1,52.1,30.16,SE,135,4.0,4.9,38,0.00,,,0.00,WUHU216HW,2013-07-30 14:07:00,
2013-07-30 07:12:00,80.3,52.3,30.16,ESE,113,4.0,5.8,38,0.00,,,0.00,WUHU216HW,2013-07-30 14:12:00,
2013-07-30 07:17:00,80.5,52.5,30.16,ESE,113,4.3,6.0,38,0.00,,,0.00,WUHU216HW,2013-07-30 14:17:00,
2013-07-30 07:22:00,80.6,52.7,30.16,ENE,68,4.0,6.0,38,0.00,,,0.00,WUHU216HW,2013-07-30 14:22:00,
2013-07-30 07:27:00,80.8,52.8,30.16,East,90,4.0,5.4,38,0.00,,,0.00,WUHU216HW,2013-07-30 14:27:00,
2013-07-30 07:32:00,81.0,52.9,30.17,ENE,68,2.5,5.4,38,0.00,,,0.00,WUHU216HW,2013-07-30 14:32:00,
2013-07-30 07:37:00,81.2,53.1,30.17,ESE,113,4.7,6.3,38,0.00,,,0.00,WUHU216HW,2013-07-30 14:37:00,
2013-07-30 07:42:00,81.5,53.5,30.17,East,90,4.5,6.3,38,0.00,,,0.00,WUHU216HW,2013-07-30 14:42:00,
2013-07-30 07:47:00,81.7,53.6,30.18,ESE,113,4.0,6.9,38,0.00,,,0.00,WUHU216HW,2013-07-30 14:47:00,
2013-07-30 07:52:00,81.7,53.6,30.18,ENE,68,4.7,6.9,38,0.00,,,0.00,WUHU216HW,2013-07-30 14:52:00,
2013-07-30 07:57:00,82.3,54.1,30.17,SE,135,6.9,6.9,38,0.00,,,0.00,WUHU216HW,2013-07-30 14:57:00,
2013-07-30 08:02:00,82.4,53.5,30.18,ESE,113,3.8,7.2,37,0.00,,,0.00,WUHU216HW,2013-07-30 15:02:00,
2013-07-30 08:07:00,82.6,53.6,30.17,NE,45,3.4,7.8,37,0.00,,,0.00,WUHU216HW,2013-07-30 15:07:00,
2013-07-30 08:12:00,83.0,53.9,30.18,ESE,113,4.0,7.8,37,0.00,,,0.00,WUHU216HW,2013-07-30 15:12:00,
2013-07-30 08:17:00,83.2,54.1,30.18,East,90,4.7,6.0,37,0.00,,,0.00,WUHU216HW,2013-07-30 15:17:00,
2013-07-30 08:22:00,83.5,54.4,30.17,ESE,113,4.0,6.5,37,0.00,,,0.00,WUHU216HW,2013-07-30 15:22:00,
2013-07-30 08:27:00,83.7,53.7,30.17,ESE,113,6.7,7.6,36,0.00,,,0.00,WUHU216HW,2013-07-30 15:27:00,
2013-07-30 08:32:00,83.9,53.1,30.17,ESE,113,5.4,7.6,35,0.00,,,0.00,WUHU216HW,2013-07-30 15:32:00,
2013-07-30 08:37:00,84.2,53.5,30.16,SSE,158,1.8,6.5,35,0.00,,,0.00,WUHU216HW,2013-07-30 15:37:00,
2013-07-30 08:42:00,84.6,53.8,30.16,SSE,158,3.4,4.9,35,0.00,,,0.00,WUHU216HW,2013-07-30 15:42:00,
2013-07-30 08:47:00,84.6,53.8,30.16,SSE,158,0.2,4.3,35,0.00,,,0.00,WUHU216HW,2013-07-30 15:47:00,
2013-07-30 08:52:00,84.8,53.9,30.16,ESE,113,2.0,3.8,35,0.00,,,0.00,WUHU216HW,2013-07-30 15:52:00,
2013-07-30 08:57:00,85.1,54.3,30.17,SSE,158,1.1,3.4,35,0.00,,,0.00,WUHU216HW,2013-07-30 15:57:00,
2013-07-30 09:02:00,85.3,53.6,30.17,West,270,3.6,6.0,34,0.00,,,0.00,WUHU216HW,2013-07-30 16:02:00,
2013-07-30 09:07:00,85.7,54.0,30.17,SSE,158,2.7,6.0,34,0.00,,,0.00,WUHU216HW,2013-07-30 16:07:00,
2013-07-30 09:12:00,85.9,54.1,30.17,SSE,158,2.2,4.5,34,0.00,,,0.00,WUHU216HW,2013-07-30 16:12:00,
2013-07-30 09:17:00,86.2,54.5,30.17,WSW,248,1.8,4.9,34,0.00,,,0.00,WUHU216HW,2013-07-30 16:17:00,
2013-07-30 09:22:00,86.8,54.1,30.17,NW,315,5.8,7.2,33,0.00,,,0.00,WUHU216HW,2013-07-30 16:22:00,
2013-07-30 09:27:00,87.5,54.7,30.17,South,180,3.1,9.6,33,0.00,,,0.00,WUHU216HW,2013-07-30 16:27:00,
2013-07-30 09:33:00,87.8,55.0,30.17,WNW,293,4.7,9.6,33,0.00,,,0.00,WUHU216HW,2013-07-30 16:33:00,
2013-07-30 09:38:00,88.0,55.2,30.17,NNW,338,4.9,7.2,33,0.00,,,0.00,WUHU216HW,2013-07-30 16:38:00,
2013-07-30 09:43:00,88.6,55.6,30.17,West,270,6.3,9.4,33,0.00,,,0.00,WUHU216HW,2013-07-30 16:43:00,
2013-07-30 09:48:00,88.9,55.9,30.17,West,270,4.0,9.6,33,0.00,,,0.00,WUHU216HW,2013-07-30 16:48:00,
2013-07-30 09:53:00,89.5,56.4,30.16,WSW,248,2.2,9.6,33,0.00,,,0.00,WUHU216HW,2013-07-30 16:53:00,
2013-07-30 09:58:00,90.0,56.9,30.17,North,0,6.3,6.3,33,0.00,,,0.00,WUHU216HW,2013-07-30 16:58:00,
2013-07-30 10:03:00,90.4,56.4,30.17,North,0,8.1,8.1,32,0.00,,,0.00,WUHU216HW,2013-07-30 17:03:00,
2013-07-30 10:08:00,90.7,56.0,30.16,NW,315,5.6,8.5,31,0.00,,,0.00,WUHU216HW,2013-07-30 17:08:00,
2013-07-30 10:13:00,91.1,56.3,30.16,SW,225,2.2,8.5,31,0.00,,,0.00,WUHU216HW,2013-07-30 17:13:00,
2013-07-30 10:17:00,91.3,56.4,30.16,NW,315,4.5,8.5,31,0.00,,,0.00,WUHU216HW,2013-07-30 17:17:00,
2013-07-30 10:22:00,91.4,56.6,30.15,West,270,5.4,7.6,31,0.00,,,0.00,WUHU216HW,2013-07-30 17:22:00,
2013-07-30 10:27:00,91.8,56.9,30.15,North,0,7.6,8.5,31,0.00,,,0.00,WUHU216HW,2013-07-30 17:27:00,
2013-07-30 10:32:00,92.0,56.3,30.15,NNE,23,6.0,10.7,30,0.00,,,0.00,WUHU216HW,2013-07-30 17:32:00,
2013-07-30 10:38:00,92.2,56.3,30.16,NNW,338,4.7,10.7,30,0.00,,,0.00,WUHU216HW,2013-07-30 17:38:00,
2013-07-30 10:43:00,92.5,56.7,30.16,NW,315,9.2,9.2,30,0.00,,,0.00,WUHU216HW,2013-07-30 17:43:00,
2013-07-30 10:48:00,92.5,55.5,30.16,North,0,2.9,9.2,29,0.00,,,0.00,WUHU216HW,2013-07-30 17:48:00,
2013-07-30 10:53:00,92.9,55.9,30.16,NNE,23,5.4,9.2,29,0.00,,,0.00,WUHU216HW,2013-07-30 17:53:00,
2013-07-30 10:58:00,93.2,56.2,30.16,WSW,248,5.6,8.3,29,0.00,,,0.00,WUHU216HW,2013-07-30 17:58:00,
2013-07-30 11:03:00,94.1,57.0,30.16,NNW,338,4.3,7.2,29,0.00,,,0.00,WUHU216HW,2013-07-30 18:03:00,
2013-07-30 11:08:00,95.2,55.6,30.16,NNW,338,8.1,8.1,27,0.00,,,0.00,WUHU216HW,2013-07-30 18:08:00,
2013-07-30 11:13:00,95.6,54.8,30.16,WNW,293,4.5,8.1,26,0.00,,,0.00,WUHU216HW,2013-07-30 18:13:00,
2013-07-30 11:18:00,95.8,53.9,30.16,NW,315,5.8,8.3,25,0.00,,,0.00,WUHU216HW,2013-07-30 18:18:00,
2013-07-30 11:23:00,95.8,53.9,30.15,NW,315,12.5,12.8,25,0.00,,,0.00,WUHU216HW,2013-07-30 18:23:00,
2013-07-30 11:28:00,95.4,53.6,30.15,West,270,8.5,13.2,25,0.00,,,0.00,WUHU216HW,2013-07-30 18:28:00,
2013-07-30 11:33:00,95.6,53.7,30.15,West,270,6.5,13.2,25,0.00,,,0.00,WUHU216HW,2013-07-30 18:33:00,
2013-07-30 11:38:00,95.8,53.9,30.15,WNW,293,9.8,11.2,25,0.00,,,0.00,WUHU216HW,2013-07-30 18:38:00,
2013-07-30 11:43:00,95.9,54.0,30.14,West,270,5.1,9.8,25,0.00,,,0.00,WUHU216HW,2013-07-30 18:43:00,
2013-07-30 11:48:00,96.5,53.4,30.14,West,270,5.4,8.7,24,0.00,,,0.00,WUHU216HW,2013-07-30 18:48:00,
2013-07-30 11:53:00,96.5,53.4,30.14,NNW,338,8.1,8.5,24,0.00,,,0.00,WUHU216HW,2013-07-30 18:53:00,
2013-07-30 11:58:00,96.7,52.5,30.13,NW,315,10.1,10.1,23,0.00,,,0.00,WUHU216HW,2013-07-30 18:58:00,
2013-07-30 12:03:00,96.8,53.7,30.14,NW,315,6.7,10.1,24,0.00,,,0.00,WUHU216HW,2013-07-30 19:03:00,
2013-07-30 12:08:00,96.8,53.7,30.14,NNW,338,6.5,9.2,24,0.00,,,0.00,WUHU216HW,2013-07-30 19:08:00,
2013-07-30 12:13:00,97.4,54.2,30.14,NNW,338,6.3,9.4,24,0.00,,,0.00,WUHU216HW,2013-07-30 19:13:00,
2013-07-30 12:18:00,97.6,53.2,30.14,North,0,4.5,9.6,23,0.00,,,0.00,WUHU216HW,2013-07-30 19:18:00,
2013-07-30 12:23:00,97.7,53.4,30.14,NNW,338,10.3,10.3,23,0.00,,,0.00,WUHU216HW,2013-07-30 19:23:00,
2013-07-30 12:28:00,97.7,53.4,30.14,West,270,4.0,11.2,23,0.00,,,0.00,WUHU216HW,2013-07-30 19:28:00,
2013-07-30 12:33:00,97.9,52.4,30.14,West,270,11.4,11.4,22,0.00,,,0.00,WUHU216HW,2013-07-30 19:33:00,
2013-07-30 12:38:00,98.5,52.8,30.14,West,270,7.4,11.4,22,0.00,,,0.00,WUHU216HW,2013-07-30 19:38:00,
2013-07-30 12:43:00,98.6,53.0,30.13,NW,315,13.4,13.4,22,0.00,,,0.00,WUHU216HW,2013-07-30 19:43:00,
2013-07-30 12:48:00,98.8,53.1,30.13,NW,315,9.2,13.4,22,0.00,,,0.00,WUHU216HW,2013-07-30 19:48:00,
2013-07-30 12:53:00,99.0,53.3,30.12,WNW,293,6.9,13.4,22,0.00,,,0.00,WUHU216HW,2013-07-30 19:53:00,
2013-07-30 12:58:00,99.5,53.7,30.12,West,270,8.5,12.5,22,0.00,,,0.00,WUHU216HW,2013-07-30 19:58:00,
2013-07-30 13:03:00,99.4,53.6,30.11,WNW,293,5.6,15.0,22,0.00,,,0.00,WUHU216HW,2013-07-30 20:03:00,
2013-07-30 13:08:00,99.7,53.9,30.11,WNW,293,7.2,15.0,22,0.00,,,0.00,WUHU216HW,2013-07-30 20:08:00,
2013-07-30 13:13:00,99.9,54.0,30.11,West,270,12.5,12.5,22,0.00,,,0.00,WUHU216HW,2013-07-30 20:13:00,
2013-07-30 13:18:00,100.1,53.0,30.11,SW,225,5.6,12.5,21,0.00,,,0.00,WUHU216HW,2013-07-30 20:18:00,
2013-07-30 13:23:00,100.6,52.4,30.11,WNW,293,8.5,12.5,20,0.00,,,0.00,WUHU216HW,2013-07-30 20:23:00,
2013-07-30 13:28:00,100.4,54.5,30.11,West,270,9.6,11.6,22,0.00,,,0.00,WUHU216HW,2013-07-30 20:28:00,
2013-07-30 13:33:00,100.6,52.4,30.11,NNW,338,8.9,9.6,20,0.00,,,0.00,WUHU216HW,2013-07-30 20:33:00,
2013-07-30 13:38:00,100.4,52.2,30.11,NW,315,3.4,11.6,20,0.00,,,0.00,WUHU216HW,2013-07-30 20:38:00,
2013-07-30 13:43:00,100.8,52.5,30.11,SSW,203,4.5,11.6,20,0.00,,,0.00,WUHU216HW,2013-07-30 20:43:00,
2013-07-30 13:48:00,101.3,52.9,30.11,WSW,248,6.0,13.4,20,0.00,,,0.00,WUHU216HW,2013-07-30 20:48:00,
2013-07-30 13:53:00,101.5,53.1,30.11,WSW,248,11.2,13.4,20,0.00,,,0.00,WUHU216HW,2013-07-30 20:53:00,
2013-07-30 13:58:00,101.3,52.9,30.11,WSW,248,4.3,15.0,20,0.00,,,0.00,WUHU216HW,2013-07-30 20:58:00,
2013-07-30 14:03:00,101.7,53.2,30.11,WSW,248,8.3,15.0,20,0.00,,,0.00,WUHU216HW,2013-07-30 21:03:00,
2013-07-30 14:08:00,101.7,51.4,30.11,West,270,9.8,12.1,19,0.00,,,0.00,WUHU216HW,2013-07-30 21:08:00,
2013-07-30 14:13:00,101.9,51.6,30.10,SSW,203,9.8,11.4,19,0.00,,,0.00,WUHU216HW,2013-07-30 21:13:00,
2013-07-30 14:18:00,102.1,51.7,30.09,WSW,248,7.4,11.6,19,0.00,,,0.00,WUHU216HW,2013-07-30 21:18:00,
2013-07-30 14:23:00,102.1,51.7,30.09,WSW,248,7.6,13.0,19,0.00,,,0.00,WUHU216HW,2013-07-30 21:23:00,
2013-07-30 14:28:00,102.1,51.7,30.08,NW,315,5.4,13.0,19,0.00,,,0.00,WUHU216HW,2013-07-30 21:28:00,
2013-07-30 14:33:00,102.4,51.9,30.08,WSW,248,5.6,10.7,19,0.00,,,0.00,WUHU216HW,2013-07-30 21:33:00,
2013-07-30 14:38:00,102.6,52.1,30.08,SW,225,5.8,10.5,19,0.00,,,0.00,WUHU216HW,2013-07-30 21:38:00,
2013-07-30 14:43:00,103.0,52.4,30.08,WNW,293,11.4,14.1,19,0.00,,,0.00,WUHU216HW,2013-07-30 21:43:00,
2013-07-30 14:48:00,102.8,52.3,30.08,West,270,8.9,15.7,19,0.00,,,0.00,WUHU216HW,2013-07-30 21:48:00,
2013-07-30 14:53:00,102.6,50.3,30.08,WNW,293,15.7,16.1,18,0.00,,,0.00,WUHU216HW,2013-07-30 21:53:00,
2013-07-30 14:58:00,102.4,51.9,30.08,West,270,4.9,16.1,19,0.00,,,0.00,WUHU216HW,2013-07-30 21:58:00,
2013-07-30 15:03:00,102.4,51.9,30.08,West,270,9.8,15.7,19,0.00,,,0.00,WUHU216HW,2013-07-30 22:03:00,
2013-07-30 15:08:00,102.4,51.9,30.08,SW,225,6.9,13.2,19,0.00,,,0.00,WUHU216HW,2013-07-30 22:08:00,
2013-07-30 15:13:00,103.1,50.8,30.08,West,270,7.4,13.2,18,0.00,,,0.00,WUHU216HW,2013-07-30 22:13:00,
2013-07-30 15:18:00,103.0,50.6,30.08,WNW,293,8.5,13.2,18,0.00,,,0.00,WUHU216HW,2013-07-30 22:18:00,
2013-07-30 15:23:00,102.8,50.4,30.08,West,270,11.4,15.0,18,0.00,,,0.00,WUHU216HW,2013-07-30 22:23:00,
2013-07-30 15:28:00,103.0,50.6,30.08,WNW,293,13.0,15.7,18,0.00,,,0.00,WUHU216HW,2013-07-30 22:28:00,
2013-07-30 15:33:00,102.6,50.3,30.08,WNW,293,11.0,16.3,18,0.00,,,0.00,WUHU216HW,2013-07-30 22:33:00,
2013-07-30 15:38:00,102.6,52.1,30.07,WSW,248,8.3,16.3,19,0.00,,,0.00,WUHU216HW,2013-07-30 22:38:00,
2013-07-30 15:43:00,103.1,50.8,30.07,WSW,248,9.6,16.3,18,0.00,,,0.00,WUHU216HW,2013-07-30 22:43:00,
2013-07-30 15:48:00,103.3,50.9,30.06,NW,315,11.4,16.3,18,0.00,,,0.00,WUHU216HW,2013-07-30 22:48:00,
2013-07-30 15:53:00,103.0,50.6,30.06,West,270,12.1,14.8,18,0.00,,,0.00,WUHU216HW,2013-07-30 22:53:00,
2013-07-30 15:58:00,103.0,50.6,30.06,West,270,9.2,14.8,18,0.00,,,0.00,WUHU216HW,2013-07-30 22:58:00,
2013-07-30 16:03:00,103.0,52.4,30.06,West,270,7.4,14.3,19,0.00,,,0.00,WUHU216HW,2013-07-30 23:03:00,
2013-07-30 16:08:00,103.0,50.6,30.06,West,270,10.5,14.8,18,0.00,,,0.00,WUHU216HW,2013-07-30 23:08:00,
2013-07-30 16:13:00,102.6,52.1,30.06,West,270,8.1,14.8,19,0.00,,,0.00,WUHU216HW,2013-07-30 23:13:00,
2013-07-30 16:18:00,103.0,52.4,30.06,WNW,293,13.4,16.3,19,0.00,,,0.00,WUHU216HW,2013-07-30 23:18:00,
2013-07-30 16:23:00,102.8,52.3,30.06,WSW,248,11.4,16.3,19,0.00,,,0.00,WUHU216HW,2013-07-30 23:23:00,
2013-07-30 16:28:00,102.8,52.3,30.06,NW,315,10.5,16.3,19,0.00,,,0.00,WUHU216HW,2013-07-30 23:28:00,
2013-07-30 16:33:00,103.1,52.6,30.07,WNW,293,13.2,13.9,19,0.00,,,0.00,WUHU216HW,2013-07-30 23:33:00,
2013-07-30 16:38:00,103.0,52.4,30.07,West,270,11.9,13.4,19,0.00,,,0.00,WUHU216HW,2013-07-30 23:38:00,
2013-07-30 16:43:00,102.4,51.9,30.07,West,270,9.8,14.5,19,0.00,,,0.00,WUHU216HW,2013-07-30 23:43:00,
2013-07-30 16:48:00,102.4,51.9,30.06,West,270,8.7,15.0,19,0.00,,,0.00,WUHU216HW,2013-07-30 23:48:00,
2013-07-30 16:53:00,102.6,52.1,30.06,WNW,293,11.0,15.0,19,0.00,,,0.00,WUHU216HW,2013-07-30 23:53:00,
2013-07-30 16:58:00,102.6,52.1,30.06,WNW,293,9.8,13.9,19,0.00,,,0.00,WUHU216HW,2013-07-30 23:58:00,
2013-07-30 17:03:00,102.6,52.1,30.06,NW,315,8.9,14.8,19,0.00,,,0.00,WUHU216HW,2013-07-31 00:03:00,
2013-07-30 17:08:00,102.2,51.9,30.05,WSW,248,7.8,17.0,19,0.00,,,0.00,WUHU216HW,2013-07-31 00:08:00,
2013-07-30 17:13:00,102.1,51.7,30.05,WSW,248,11.9,17.0,19,0.00,,,0.00,WUHU216HW,2013-07-31 00:13:00,
2013-07-30 17:18:00,101.9,51.6,30.05,West,270,9.2,16.6,19,0.00,,,0.00,WUHU216HW,2013-07-31 00:18:00,
2013-07-30 17:23:00,101.9,51.6,30.05,West,270,13.6,16.6,19,0.00,,,0.00,WUHU216HW,2013-07-31 00:23:00,
2013-07-30 17:28:00,101.9,51.6,30.05,West,270,13.4,14.8,19,0.00,,,0.00,WUHU216HW,2013-07-31 00:28:00,
2013-07-30 17:33:00,101.7,51.4,30.05,West,270,11.0,16.1,19,0.00,,,0.00,WUHU216HW,2013-07-31 00:33:00,
2013-07-30 17:38:00,101.7,53.2,30.05,West,270,9.2,16.1,20,0.00,,,0.00,WUHU216HW,2013-07-31 00:38:00,
2013-07-30 17:43:00,101.5,51.2,30.06,WSW,248,10.1,17.4,19,0.00,,,0.00,WUHU216HW,2013-07-31 00:43:00,
2013-07-30 17:48:00,101.5,51.2,30.06,West,270,14.3,17.4,19,0.00,,,0.00,WUHU216HW,2013-07-31 00:48:00,
2013-07-30 17:53:00,101.2,50.9,30.06,West,270,13.2,17.2,19,0.00,,,0.00,WUHU216HW,2013-07-31 00:53:00,
2013-07-30 17:58:00,100.4,52.2,30.07,North,0,14.3,17.2,20,0.00,,,0.00,WUHU216HW,2013-07-31 00:58:00,
2013-07-30 18:03:00,99.7,51.7,30.07,West,270,5.8,15.0,20,0.00,,,0.00,WUHU216HW,2013-07-31 01:03:00,
2013-07-30 18:08:00,99.7,51.7,30.07,NW,315,10.5,14.3,20,0.00,,,0.00,WUHU216HW,2013-07-31 01:08:00,
2013-07-30 18:13:00,99.2,51.2,30.07,West,270,12.5,15.0,20,0.00,,,0.00,WUHU216HW,2013-07-31 01:13:00,
2013-07-30 18:18:00,98.5,50.6,30.07,West,270,9.8,15.0,20,0.00,,,0.00,WUHU216HW,2013-07-31 01:18:00,
2013-07-30 18:23:00,97.9,51.3,30.07,NW,315,7.6,13.4,21,0.00,,,0.00,WUHU216HW,2013-07-31 01:23:00,
2013-07-30 18:28:00,97.6,52.1,30.07,West,270,6.9,13.4,22,0.00,,,0.00,WUHU216HW,2013-07-31 01:28:00,
2013-07-30 18:33:00,97.0,51.7,30.06,West,270,7.2,15.0,22,0.00,,,0.00,WUHU216HW,2013-07-31 01:33:00,
2013-07-30 18:38:00,96.7,51.4,30.06,WSW,248,10.5,15.0,22,0.00,,,0.00,WUHU216HW,2013-07-31 01:38:00,
2013-07-30 18:43:00,96.3,51.0,30.06,WNW,293,9.4,13.6,22,0.00,,,0.00,WUHU216HW,2013-07-31 01:43:00,
2013-07-30 18:48:00,96.7,51.4,30.06,WNW,293,11.6,11.6,22,0.00,,,0.00,WUHU216HW,2013-07-31 01:48:00,
2013-07-30 18:53:00,97.6,52.1,30.06,West,270,4.9,12.8,22,0.00,,,0.00,WUHU216HW,2013-07-31 01:53:00,
2013-07-30 18:58:00,97.7,52.3,30.06,West,270,6.9,12.8,22,0.00,,,0.00,WUHU216HW,2013-07-31 01:58:00,
2013-07-30 19:03:00,97.6,51.0,30.07,NW,315,4.9,11.4,21,0.00,,,0.00,WUHU216HW,2013-07-31 02:03:00,
2013-07-30 19:08:00,97.4,51.9,30.07,WNW,293,9.8,11.4,22,0.00,,,0.00,WUHU216HW,2013-07-31 02:08:00,
2013-07-30 19:13:00,96.7,51.4,30.07,NW,315,9.2,11.4,22,0.00,,,0.00,WUHU216HW,2013-07-31 02:13:00,
2013-07-30 19:18:00,95.9,50.8,30.07,WNW,293,7.4,10.7,22,0.00,,,0.00,WUHU216HW,2013-07-31 02:18:00,
2013-07-30 19:23:00,95.4,50.2,30.07,WNW,293,6.3,10.7,22,0.00,,,0.00,WUHU216HW,2013-07-31 02:23:00,
2013-07-30 19:28:00,95.0,51.0,30.07,WSW,248,8.5,11.0,23,0.00,,,0.00,WUHU216HW,2013-07-31 02:28:00,
2013-07-30 19:33:00,94.7,50.8,30.07,West,270,7.2,11.0,23,0.00,,,0.00,WUHU216HW,2013-07-31 02:33:00,
2013-07-30 19:38:00,94.5,50.6,30.07,NW,315,4.7,10.5,23,0.00,,,0.00,WUHU216HW,2013-07-31 02:38:00,
2013-07-30 19:43:00,94.3,50.5,30.08,WSW,248,3.4,10.5,23,0.00,,,0.00,WUHU216HW,2013-07-31 02:43:00,
2013-07-30 19:48:00,94.1,50.3,30.07,NW,315,5.1,8.1,23,0.00,,,0.00,WUHU216HW,2013-07-31 02:48:00,
2013-07-30 19:53:00,94.1,50.3,30.07,NNW,338,10.1,11.2,23,0.00,,,0.00,WUHU216HW,2013-07-31 02:53:00,
2013-07-30 19:58:00,94.1,50.3,30.07,NNW,338,4.3,11.2,23,0.00,,,0.00,WUHU216HW,2013-07-31 02:58:00,
2013-07-30 20:03:00,94.0,50.1,30.07,NNW,338,6.5,9.2,23,0.00,,,0.00,WUHU216HW,2013-07-31 03:03:00,
2013-07-30 20:08:00,94.0,50.1,30.07,NW,315,8.1,11.6,23,0.00,,,0.00,WUHU216HW,2013-07-31 03:08:00,
2013-07-30 20:13:00,94.0,50.1,30.07,NNE,23,4.7,11.6,23,0.00,,,0.00,WUHU216HW,2013-07-31 03:13:00,
2013-07-30 20:18:00,93.8,50.1,30.07,WNW,293,4.0,9.8,23,0.00,,,0.00,WUHU216HW,2013-07-31 03:18:00,
2013-07-30 20:23:00,93.6,50.9,30.07,WNW,293,5.4,8.1,24,0.00,,,0.00,WUHU216HW,2013-07-31 03:23:00,
2013-07-30 20:28:00,93.4,50.8,30.08,NNW,338,4.9,8.1,24,0.00,,,0.00,WUHU216HW,2013-07-31 03:28:00,
2013-07-30 20:33:00,93.2,50.7,30.08,NNW,338,5.4,5.8,24,0.00,,,0.00,WUHU216HW,2013-07-31 03:33:00,
2013-07-30 20:38:00,93.1,50.5,30.08,NNW,338,4.5,5.8,24,0.00,,,0.00,WUHU216HW,2013-07-31 03:38:00,
2013-07-30 20:43:00,93.1,50.5,30.08,NW,315,4.9,8.5,24,0.00,,,0.00,WUHU216HW,2013-07-31 03:43:00,
2013-07-30 20:48:00,93.1,50.5,30.09,NNW,338,8.5,8.5,24,0.00,,,0.00,WUHU216HW,2013-07-31 03:48:00,
2013-07-30 20:53:00,93.1,50.5,30.09,NNW,338,4.7,8.5,24,0.00,,,0.00,WUHU216HW,2013-07-31 03:53:00,
2013-07-30 20:58:00,93.2,50.7,30.09,North,0,5.6,9.8,24,0.00,,,0.00,WUHU216HW,2013-07-31 03:58:00,
2013-07-30 21:01:00,93.1,50.5,30.09,North,0,4.3,9.8,24,0.00,,,0.00,WUHU216HW,2013-07-31 04:01:00,
2013-07-30 21:02:00,93.1,50.5,30.09,NNE,23,3.4,9.8,24,0.00,,,0.00,WUHU216HW,2013-07-31 04:02:00,
2013-07-30 21:07:00,93.1,50.5,30.10,North,0,4.5,6.7,24,0.00,,,0.00,WUHU216HW,2013-07-31 04:07:00,
2013-07-30 21:12:00,93.1,50.5,30.09,NW,315,6.5,8.5,24,0.00,,,0.00,WUHU216HW,2013-07-31 04:12:00,
2013-07-30 21:17:00,93.2,50.7,30.09,NNE,23,4.0,8.5,24,0.00,,,0.00,WUHU216HW,2013-07-31 04:17:00,
2013-07-30 21:22:00,93.2,50.7,30.09,NNW,338,6.3,8.9,24,0.00,,,0.00,WUHU216HW,2013-07-31 04:22:00,
2013-07-30 21:27:00,93.4,49.7,30.08,North,0,7.4,14.3,23,0.00,,,0.00,WUHU216HW,2013-07-31 04:27:00,
2013-07-30 21:32:00,93.4,49.7,30.08,NNE,23,9.2,14.3,23,0.00,,,0.00,WUHU216HW,2013-07-31 04:32:00,
2013-07-30 21:37:00,93.2,49.6,30.08,NNE,23,7.6,9.8,23,0.00,,,0.00,WUHU216HW,2013-07-31 04:37:00,
2013-07-30 21:42:00,93.2,49.6,30.08,North,0,5.4,11.9,23,0.00,,,0.00,WUHU216HW,2013-07-31 04:42:00,
2013-07-30 21:47:00,93.2,50.7,30.09,NW,315,9.8,11.9,24,0.00,,,0.00,WUHU216HW,2013-07-31 04:47:00,
2013-07-30 21:52:00,93.2,50.7,30.09,North,0,5.1,11.2,24,0.00,,,0.00,WUHU216HW,2013-07-31 04:52:00,
2013-07-30 21:57:00,93.2,50.7,30.09,NW,315,5.1,11.0,24,0.00,,,0.00,WUHU216HW,2013-07-31 04:57:00,
2013-07-30 22:02:00,93.1,50.5,30.09,NNW,338,5.4,8.5,24,0.00,,,0.00,WUHU216HW,2013-07-31 05:02:00,
2013-07-30 22:07:00,93.1,50.5,30.09,North,0,5.4,7.8,24,0.00,,,0.00,WUHU216HW,2013-07-31 05:07:00,
2013-07-30 22:12:00,92.9,50.4,30.09,NNE,23,7.8,11.2,24,0.00,,,0.00,WUHU216HW,2013-07-31 05:12:00,
2013-07-30 22:17:00,92.9,50.4,30.10,North,0,5.6,11.2,24,0.00,,,0.00,WUHU216HW,2013-07-31 05:17:00,
2013-07-30 22:22:00,92.9,50.4,30.10,NNE,23,7.2,10.5,24,0.00,,,0.00,WUHU216HW,2013-07-31 05:22:00,
2013-07-30 22:27:00,93.1,50.5,30.10,NNE,23,10.3,11.4,24,0.00,,,0.00,WUHU216HW,2013-07-31 05:27:00,
2013-07-30 22:32:00,93.1,50.5,30.10,North,0,4.9,11.4,24,0.00,,,0.00,WUHU216HW,2013-07-31 05:32:00,
2013-07-30 22:37:00,92.9,50.4,30.09,NNE,23,10.5,10.5,24,0.00,,,0.00,WUHU216HW,2013-07-31 05:37:00,
2013-07-30 22:42:00,92.9,50.4,30.09,NNE,23,7.4,10.5,24,0.00,,,0.00,WUHU216HW,2013-07-31 05:42:00,
2013-07-30 22:47:00,92.9,50.4,30.08,NNE,23,8.7,10.5,24,0.00,,,0.00,WUHU216HW,2013-07-31 05:47:00,
2013-07-30 22:52:00,92.9,50.4,30.08,North,0,7.4,11.4,24,0.00,,,0.00,WUHU216HW,2013-07-31 05:52:00,
2013-07-30 22:57:00,92.7,50.2,30.08,North,0,5.8,12.8,24,0.00,,,0.00,WUHU216HW,2013-07-31 05:57:00,
2013-07-30 23:02:00,92.5,50.0,30.09,North,0,7.2,12.8,24,0.00,,,0.00,WUHU216HW,2013-07-31 06:02:00,
2013-07-30 23:07:00,92.5,50.0,30.09,North,0,6.9,9.6,24,0.00,,,0.00,WUHU216HW,2013-07-31 06:07:00,
2013-07-30 23:12:00,92.3,50.0,30.09,North,0,3.6,9.8,24,0.00,,,0.00,WUHU216HW,2013-07-31 06:12:00,
2013-07-30 23:17:00,92.2,50.9,30.09,NNW,338,3.6,9.8,25,0.00,,,0.00,WUHU216HW,2013-07-31 06:17:00,
2013-07-30 23:22:00,92.2,50.9,30.09,NNE,23,7.6,11.4,25,0.00,,,0.00,WUHU216HW,2013-07-31 06:22:00,
2013-07-30 23:27:00,92.2,50.9,30.09,NNE,23,9.4,11.4,25,0.00,,,0.00,WUHU216HW,2013-07-31 06:27:00,
2013-07-30 23:32:00,92.0,50.8,30.10,North,0,9.8,11.4,25,0.00,,,0.00,WUHU216HW,2013-07-31 06:32:00,
2013-07-30 23:37:00,92.0,50.8,30.10,North,0,8.1,11.4,25,0.00,,,0.00,WUHU216HW,2013-07-31 06:37:00,
2013-07-30 23:42:00,92.2,50.9,30.10,NNE,23,5.1,11.0,25,0.00,,,0.00,WUHU216HW,2013-07-31 06:42:00,
2013-07-30 23:47:00,92.2,50.9,30.10,NE,45,6.7,11.0,25,0.00,,,0.00,WUHU216HW,2013-07-31 06:47:00,
2013-07-30 23:52:00,92.2,50.9,30.09,NNW,338,3.4,10.5,25,0.00,,,0.00,WUHU216HW,2013-07-31 06:52:00,
2013-07-30 23:57:00,92.2,50.9,30.09,NNE,23,4.7,10.5,25,0.00,,,0.00,WUHU216HW,2013-07-31 06:57:00,